NOAA 16 DEB

Satellite information

Favourite Embed

Satellite Type and Status

DEBRISIN ORBIT

Key statistics

Satellite NOAA 16 DEB at a glance.

Uptime

8994

Days in orbit

Revolutions

≈ 14.3

Per day

Orbit

SSO

Sun Synchronous Orbit

Inclination

98.8

Latest

Satellite identification and parameters

Extended collection of information and parameters for NOAA 16 DEB.

Object identification

Identified? True

Debris? True

Object name: NOAA 16 DEB

International designator: 2000-055NJ

Object number (NORAD): 41534

Object ID (CCSDS): 41534

Country: UNITED STATES OF AMERICA (US)

Current information (Y/N): Y

RCS size: SMALL

Orbital parameters

Period: 100.801 minutes

Inclination: 98.82 deg

SMA: 7174.704 km

Apoapsis: 808.791 km

Periapsis: 784.347 km

RAAN: 202.8576 deg

Eccentricy: 0.0017035

Argument of periapsis: 284.8631 deg

Mean anomaly: 75.0663 deg

Mean motion: 14.28554387 rev/day

Mean motion (dot): 0.00008533 rev/day2

B* drag term: 0.0034117 1/REarth

Two-line elements (TLE)

Creation date: May 6, 2025, 3:54 a.m.

Reference frame: TEME

Reference center: EARTH

Epoch: May 5, 2025, 10:29 a.m. UTC

TLE line 0: 0 NOAA 16 DEB

TLE line 1: 1 41534U 00055NJ 25125.43695587 .00008533 00000-0 34117-2 0 9996

TLE line 2: 2 41534 98.8200 202.8576 0017035 284.8631 75.0663 14.28554387465003

Live tracking on map

Real-time ground track for satellite NOAA 16 DEB.

In-orbit conjunctions

A list of the most updated potential collisions computed for object NOAA 16 DEB.

Target Orbit TCA Probability of collision Miss distance Type
SL-3 R/B LEO 2025-01-29 14:19:54 0.0001619675 38.0 (m) ROCKET BODY
FENGYUN 1C DEB SSO 2024-11-08 23:41:15 0.000111386 402.0 (m) DEBRIS
METEOR 2-5 DEB LEO 2024-09-20 05:40:19 0.0002179247 90.0 (m) DEBRIS
DMSP 5D-2 F12 (USA 106) SSO 2024-06-12 02:17:33 0.000186736 744.0 (m) PAYLOAD

Associated space launch

The NOAA K, L and M POES satellites begin the fifth generation of improved environmental monitoring in support of NOAA missions. The instrument payload has significant improvements and additions/deletions. The instrument changes have effected the spacecraft subsystems and data formats.

NOAA 16 DEB was lifted into orbit during the mission ‘Titan II SLV | NOAA 16’, on board a Titan II SLV space rocket.

The launch took place on Sept. 21, 2000, 10:22 a.m. from Space Launch Complex 4W.

For more information about the launch, click the button.

Launch to space Titan II SLV | NOAA 16
Titan II SLV | NOAA 16

Agency: N/A

Status: Launch Successful

Launch date: Sept. 21, 2000, 10:22 a.m. UTC

Rocket: Titan II SLV

Launch pad: Space Launch Complex 4W

Location: Vandenberg SFB, CA, USA

...

Latest news about this satellite

There are no fresh news available about this satellite. Check back as we update our databases every day.


Newsletter sign-up

Weekly statistics, charts and insights to help you stay on top of the space industry.